www.pogodaiklimat.ru

Погода и климат >> Архив погоды >> Россия >> Самарская область >> Самара


АРХИВ ПОГОДЫ в Самаре

Время (UTC), дата Ветер
(напр.,м/с)
 
Видим.   Явления Облачность Т
(С)
Тd
(С)
f
(%)
Тe
(С)
Тes
(С)
Комфортность P
(гПа)
Po
(гПа)
Тmin
(С)
Tmax
(С)
R
(мм)
R24
(мм)
S
(см)
12 11.12 ЮВ 2 10 км в посл. час снег 10/10 600 м
[Sc]
-2.5 -2.5 100 -7 -7 1027.5 1009.6
15 11.12 ЮВ 1 10 км 8/0
[Ac trans Ci fib]
-2.7 -4.7 86 -5 -5 1027.9 1010.0 -2.3 2
18 11.12 В 3 10 км 10/10 600 м
[Sc]
-3.3 -5.4 85 -9 -9 1027.5 1009.5
21 11.12 В 3 4000 м слабый снег 10/10 600 м
[Sc]
-4.2 -5.5 91 -10 -10 1027.6 1009.6
00 12.12 В 3 10 км в посл. час снег 10/10 600 м
[Sc]
-4.4 -4.6 99 -10 -10 1027.0 1009.0
03 12.12 ЮВ 2 10 км 10/8 600 м
[Sc Ac trans]
-4.2 -5.3 92 -9 -9 1026.8 1008.8 -4.5 2 34
06 12.12 ЮВ 2 10 км 10/8 600 м
[Sc diur, vesp Ac trans]
-3.8 -4.0 99 -8 -8 1028.0 1010.0
09 12.12 ЮВ 3 10 км {снег} 10/8 600 м
[Sc diur, vesp Ac trans]
-3.9 -4.1 99 -9 -9 1027.7 1009.7
12 12.12 В 3 4000 м дымка {снег} 10/10 300 м
[Sc diur, vesp]
-3.7 -3.7 100 -9 -9 1027.9 1009.9
15 12.12 ЮВ 3
{10}
10 км 10/10 600 м
[Sc]
-3.6 -4.1 96 -9 -9 1028.6 1010.6 -3.5 0.0
18 12.12 ЮВ 2 10 км 10/10 600 м
[Sc]
-3.9 -3.9 100 -8 -8 1028.6 1010.6
21 12.12 ЮВ 2 10 км 10/10 600 м
[Sc]
-4.2 -4.2 100 -9 -9 1028.8 1010.8
00 13.12 В 3 10 км 10/10 600 м
[Sc]
-4.2 -4.5 98 -10 -10 1029.1 1011.1
03 13.12 В 3 10 км слабый снег {метель} 10/10 300 м
[Frnb Ns]
-4.1 -4.1 100 -10 -10 1028.4 1010.4 -4.4 1 33
06 13.12 В 4
{11}
2000 м снег {метель} 10/10 300 м
[Frnb Ns]
-4.0 -4.2 99 -10 -10 1028.4 1010.4
09 13.12 В 4
{10}
4000 м слабый снег {метель} 10/10 300 м
[Frnb Ns]
-3.8 -4.4 96 -10 -10 1028.1 1010.1
12 13.12 В 4
{11}
2000 м снег {метель} 10/10 300 м
[Frnb Ns]
-4.4 -5.0 96 -11 -11 1027.7 1009.7
15 13.12 ЮВ 3 4000 м слабый снег {метель} 10/10 300 м
[Frnb Ns]
-4.2 -5.5 91 -10 -10 1028.5 1010.5 -3.6 4
18 13.12 ЮВ 3
{10}
10 км слабый снег {метель} 10/10 600 м
[Sc]
-4.6 -5.9 91 -10 -10 1028.1 1010.1
21 13.12 В 3 10 км слабый снег {метель} 10/10 600 м
[Sc]
-4.3 -4.6 98 -10 -10 1028.0 1010.0
00 14.12 ЮВ 2 10 км слабый снег {метель} 10/10 600 м
[Sc]
-3.5 -3.5 100 -8 -8 1028.4 1010.4
03 14.12 Ю 3 10 км слабая переохл. морось (гололёд) {снег} 10/10 300 м
[St]
-2.9 -4.1 91 -8 -8 1027.9 1010.0 -4.6 0.9 33
06 14.12 ЮВ 1 10 км {снег, морось} 10/10 600 м
[Sc]
-3.9 -5.4 89 -6 -6 1029.6 1011.6
09 14.12 Ю 3 10 км слабый снег 10/10 600 м
[Sc]
-4.1 -6.0 87 -10 -10 1030.5 1012.4
12 14.12 В 2 10 км {снег} 10/6 600 м
[Sc diur, vesp Ac trans]
-4.8 -7.2 83 -9 -9 1031.2 1013.1
15 14.12 В 3 10 км 10/5 600 м
[Sc Ac trans]
-5.4 -8.5 79 -11 -11 1032.1 1013.9 -2.9 0.3
18 14.12 ЮВ 3 10 км 10/5 600 м
[Sc Ac trans]
-7.1 -9.9 80 -13 -13 1032.1 1013.8
21 14.12 ЮВ 3 10 км 10/0
[Ac trans]
-8.7 -11.3 81 -15 -15 1032.1 1013.7
00 15.12 ЮВ 3 10 км 10/4 600 м
[Sc Ac trans]
-9.8 -12.3 82 -16 -16 1032.2 1013.7
03 15.12 ЮВ 2 10 км 10/0
[Ci fib]
-10.8 -13.3 82 -15 -15 1032.3 1013.7 -10.9 33
06 15.12 ЮВ 3 10 км 8/0
[Ac trans Ci fib]
-11.1 -13.6 82 -17 -17 1033.2 1014.6 -11.3
09 15.12 ЮВ 2 10 км 8/0
[Ac trans Ci sp]
-9.6 -12.8 77 -14 -13 1033.4 1014.9
12 15.12 В 3 10 км 8/4
[Sc Ac trans Ci sp]
-9.1 -12.1 79 -15 -15 1033.4 1014.9
15 15.12 В 3 10 км 8/0
[Ci fib]
-9.5 -11.9 83 -15 -15 1033.7 1015.2 -9.0
18 15.12 В 3
{10}
10 км 8/0
[Ci fib]
-10.1 -12.8 81 -16 -16 1033.9 1015.4
21 15.12 В 3 10 км 6/0
[Ci fib]
-9.8 -13.0 77 -16 -16 1034.1 1015.6
00 16.12 ЮВ 2 10 км 6/0
[Ci fib]
-10.4 -13.1 81 -15 -15 1034.0 1015.4
03 16.12 ЮВ 2 10 км 6/0
[Ci fib]
-10.6 -13.4 80 -15 -15 1034.1 1015.5 -10.6 32
06 16.12 ЮВ 2 10 км 10/0
[Ac trans Ci fib]
-10.9 -13.6 80 -15 -15 1034.7 1016.1 -10.9
09 16.12 В 3 10 км 10/0
[Ac trans Ci sp]
-9.8 -12.8 79 -16 -15 1034.0 1015.5
12 16.12 В 2 10 км 10/0
[Ac trans Ci fib]
-9.5 -12.6 78 -14 -14 1035.0 1016.5
15 16.12 ЮВ 3 10 км 10/0
[Ac trans Ci fib]
-10.0 -12.7 81 -16 -16 1035.8 1017.3 -9.1
18 16.12 ЮВ 2 10 км 10/8 600 м
[Sc Ac trans]
-10.5 -13.3 80 -15 -15 1036.2 1017.6
21 16.12 ЮВ 2 10 км 4/0
[Ac trans Ci fib]
-11.4 -13.8 82 -16 -16 1036.4 1017.8
00 17.12 В 2 10 км 6/0 600 м
[Ci fib]
-13.4 -15.1 87 -18 -18 1036.8 1018.0
03 17.12 В 3 10 км 8/0
[Ci fib]
-13.8 -15.6 86 -20 -20 1036.4 1017.6 -13.8 31
06 17.12 В 3 10 км 10/0
[Ac trans Ci fib]
-14.3 -16.2 85 -21 -21 1036.7 1017.8 -14.4
09 17.12 В 2 10 км 10/0
[Ci fib]
-12.0 -14.5 82 -17 -16 1036.3 1017.6
12 17.12 ЮВ 3 10 км 10/0
[Ci fib]
-10.0 -12.8 80 -16 -16 1035.6 1017.0
15 17.12 В 2 10 км 10/0
[Ci fib]
-10.9 -13.2 83 -15 -15 1035.1 1016.5 -9.8
18 17.12 ЮВ 2 10 км 10/0
[Ac trans Ci fib]
-11.7 -14.5 80 -16 -16 1034.8 1016.1
21 17.12 В 1 н/о 10/0
[Ci fib]
-11.6 -14.5 79 -14 -14 1035.6 1016.9
00 18.12 В 2 10 км 6/0
[Ci fib]
-12.9 -15.0 84 -18 -18 1036.0 1017.2
03 18.12 В 3 10 км 6/0
[Ci fib]
-13.7 -15.7 85 -20 -20 1036.0 1017.2 -13.7 30
06 18.12 В 2 10 км 8/0
[Ac trans Ci fib]
-13.4 -15.8 82 -18 -18 1036.4 1017.6 -14.2
09 18.12 В 2 10 км 9/0
[Ac trans Ci fib]
-11.1 -15.2 72 -16 -15 1036.6 1018.0

 

Местоположение метеостанции Самара (Самарская область, Россия): широта 53.25 долгота 50.22 высота над уровнем моря 139 м.

В архиве по умолчанию представлена погода в Самаре за последнюю неделю. Архивные данные за месяц целиком и за предыдущие месяцы, начиная с января 2011 года, Вы можете получить, выбрав интересующий диапазон дат из раскрывающегося списка и нажав кнопку "Ввод!".

Внимание! Время в таблицах - всемирное. Для получения местного времени необходимо прибавить поправку, которая в Самаре равна 4 ч.

Смотрите также архив погоды в соседних городах и на ближайших метеорологических станциях:

Погода в Самаре-Центр (Самарская область, Россия) (8 км)
Погода в Курумоче (Самарская область, Россия) (28 км)
Погода в Аглосе (Самарская область, Россия) (32 км)
Погода в Безенчуке (Самарская область, Россия) (61 км)
Погода в Тольятти (Самарская область, Россия) (69 км)
Погода в Кинель-Черкассах (Самарская область, Россия) (94 км)
Погода в Большая Глушица (Самарская область, Россия) (98 км)
Погода в Авангарде Зерносовхозе (Самарская область, Россия) (100 км)
Погода в Новодевичьем (Самарская область, Россия) (100 км)
Погода в Серноводске (Самарская область, Россия) (102 км)

Пояснения к столбцам:

Ветер - указаны скорость ветра в м/с - средняя за 10 мин, порывы в срок и между сроками (в фигурных скобках) и направление, откуда дует ветер: С - северный, СВ - северо-восточный, В - восточный, ЮВ - юго-восточный, Ю - южный, ЮЗ - юго-западный, З - западный, СЗ - северо-западный.
Видимость - горизонтальная дальность видимости в метрах или километрах. При видимости от 1 до 10 км при отсутствии осадков обычно наблюдается дымка, при ухудшении видимости до 1 км и менее - туман. В сухую погоду видимость может ухудшаться дымом, пылью или мглою.
Явления - указаны атмосферные явления, наблюдавшиеся в срок или в последний час перед сроком; фигурными скобками обозначены явления, наблюдавшиеся между сроками (за 1-3 часа до срока); квадратными скобками обозначены град или гололедные отложения с указанием их диаметра в мм.
Облачность - указаны через наклонную черту общая и нижняя облачность в баллах и высота нижней границы облаков в метрах; квадратными скобками обозначены формы облаков: Ci - перистые, Cs - перисто-слоистые, Cc - перисто-кучевые, Ac - высококучевые, As - высокослоистые, Sc - слоисто-кучевые, Ns - слоисто-дождевые, Cu - кучевые, Cb - кучево-дождевые. Подробнее классификацию облаков см. в Атласе облаков (PDF).
T - Температура воздуха - температура, измеренная на высоте 2 м над землей.
Td - Температура точки росы - температура, при понижении до которой содержащийся в воздухе водяной пар достигнет насыщения.
f - Относительная влажность воздуха - влажноcть воздуха, измеренная на высоте 2 м над землей.
Te - Эффективная температура - температура, которую ощущает одетый по сезону человек в тени. Характеристика душности погоды. При расчете учитывается влияние влажности воздуха и скорости ветра на теплоощущения человека.
Tes - Эффективная температура на солнце - температура, которую ощущает человек, с поправкой на солнечный нагрев. Характеристика знойности погоды. Зависит от высоты солнца над горизонтом, облачности и скорости ветра. Ночью, в пасмурную погоду, а также при ветре 12 м/с и более поправка равна нулю.
P - Атмосферное давление - приведенное к уровню моря атмосферное давление.
Po - Атмосферное давление - измеренное на уровне метеостанции атмосферное давление.
Tmin - Минимальная температура - минимум температуры воздуха на высоте 2 м над землей.
Tmax - Максимальная температура - максимум температуры воздуха на высоте 2 м над землей.
R - Количество осадков - Количество выпавших осадков за период времени, мм. При наведении курсора мыши на число - период времени, за который выпало указанное количество осадков.
R24 - Количество осадков - Количество выпавших осадков за 24 часа, мм.
S - Снежный покров - Высота снежного покрова, см. При наведении курсора мыши на число - состояние снежного покрова и степень покрытия местности в баллах.